| time (UTC) | temp F | wind direction | speed knots | gust knots | rain 1hr in | rain 24hr in | rain mn in | humidity % | barometer mb |
| 20260904121318 | 71 | 296 | 7.0 | 13.0 | 0.00 | 0.03 | 0.03 | 84 | 1012.0 |
| 20260904120819 | 71 | 271 | 7.0 | 11.3 | 0.00 | 0.03 | 0.03 | 84 | 1012.0 |
| 20260904120321 | 70 | 243 | 6.1 | 15.6 | 0.00 | 0.03 | 0.03 | 83 | 1011.9 |
| 20260904115818 | 70 | 262 | 6.1 | 19.1 | 0.00 | 0.03 | 0.00 | 84 | 1011.9 |
| 20260904115319 | 70 | 254 | 7.0 | 19.1 | 0.02 | 0.03 | 0.00 | 83 | 1011.8 |
| 20260904114818 | 71 | 183 | 7.8 | 15.6 | 0.03 | 0.03 | 0.00 | 83 | 1011.9 |
| 20260904114700 | 71 | 216 | 7.8 | 18.2 | 0.03 | 0.03 | 0.00 | 83 | 1011.8 |
| 20260904113817 | 71 | 251 | 10.4 | 18.2 | 0.03 | 0.03 | 0.00 | 84 | 1011.9 |
| 20260904113659 | 70 | 223 | 5.2 | 13.9 | 0.03 | 0.03 | 0.00 | 85 | 1011.9 |
| 20260904112817 | 70 | 285 | 7.0 | 18.2 | 0.03 | 0.03 | 0.00 | 85 | 1011.9 |
| 20260904112318 | 70 | 275 | 7.8 | 18.2 | 0.03 | 0.03 | 0.00 | 85 | 1011.9 |
| 20260904111818 | 70 | 252 | 7.8 | 15.6 | 0.03 | 0.03 | 0.00 | 85 | 1011.8 |
| 20260904111317 | 70 | 248 | 6.1 | 15.6 | 0.03 | 0.03 | 0.00 | 86 | 1011.7 |
| 20260904110818 | 70 | 282 | 6.1 | 13.0 | 0.03 | 0.03 | 0.00 | 86 | 1011.8 |
| 20260904110318 | 70 | 213 | 7.0 | 13.0 | 0.03 | 0.02 | 0.02 | 84 | 1012.0 |
| 20260904105817 | 70 | 276 | 8.7 | 13.9 | 0.03 | 0.00 | 0.02 | 84 | 1012.1 |
| 20260904105319 | 71 | 289 | 9.6 | 13.9 | 0.01 | 0.00 | 0.01 | 82 | 1012.1 |
| 20260904104819 | 71 | 251 | 7.0 | 16.5 | 0.00 | 0.00 | 0.00 | 81 | 1012.0 |
| 20260904104317 | 71 | 223 | 9.6 | 16.5 | 0.00 | 0.00 | 0.00 | 80 | 1012.2 |
| 20260904103816 | 71 | 266 | 8.7 | 22.6 | 0.00 | 0.00 | 0.00 | 80 | 1012.1 |
| 20260904103318 | 71 | 245 | 9.6 | 22.6 | 0.00 | 0.00 | 0.00 | 80 | 1012.1 |
| 20260904102816 | 71 | 271 | 7.8 | 16.5 | 0.00 | 0.00 | 0.00 | 81 | 1012.1 |
| 20260904102705 | 71 | 210 | 6.1 | 17.4 | 0.00 | 0.00 | 0.00 | 82 | 1012.1 |
| 20260904101816 | 71 | 252 | 11.3 | 19.1 | 0.00 | 0.00 | 0.00 | 81 | 1012.0 |
| 20260904101316 | 71 | 203 | 10.4 | 19.1 | 0.00 | 0.00 | 0.00 | 80 | 1012.1 |
| 20260904100815 | 72 | 295 | 9.6 | 16.5 | 0.00 | 0.00 | 0.00 | 78 | 1012.2 |
| 20260904100315 | 72 | 265 | 8.7 | 16.5 | 0.00 | 0.00 | 0.00 | 78 | 1012.0 |
| 20260904095816 | 72 | 286 | 9.6 | 19.1 | 0.00 | 0.00 | 0.00 | 78 | 1012.2 |
| 20260904095315 | 72 | 195 | 8.7 | 19.1 | 0.00 | 0.00 | 0.00 | 78 | 1012.0 |
| 20260904095055 | 72 | 272 | 8.7 | 19.1 | 0.00 | 0.00 | 0.00 | 79 | 1012.1 |
| 20260904094945 | 72 | 282 | 8.7 | 18.2 | 0.00 | 0.00 | 0.00 | 78 | 1012.2 |
| 20260904093814 | 72 | 268 | 12.2 | 19.1 | 0.00 | 0.00 | 0.00 | 79 | 1012.1 |
| 20260904093315 | 72 | 227 | 7.8 | 25.2 | 0.00 | 0.00 | 0.00 | 79 | 1012.2 |
| 20260904092816 | 72 | 216 | 10.4 | 25.2 | 0.00 | 0.00 | 0.00 | 78 | 1012.1 |
| 20260904092327 | 72 | 212 | 7.0 | 16.5 | 0.00 | 0.00 | 0.00 | 79 | 1012.0 |
| 20260904091816 | 72 | 266 | 7.8 | 18.2 | 0.00 | 0.00 | 0.00 | 79 | 1012.0 |
| 20260904091314 | 72 | 252 | 11.3 | 22.6 | 0.00 | 0.00 | 0.00 | 79 | 1011.8 |
| 20260904090814 | 72 | 206 | 13.0 | 22.6 | 0.00 | 0.00 | 0.00 | 79 | 1011.9 |
| 20260904090315 | 72 | 252 | 12.2 | 19.1 | 0.00 | 0.00 | 0.00 | 80 | 1011.8 |
| 20260904085815 | 72 | 207 | 11.3 | 20.0 | 0.00 | 0.00 | 0.00 | 80 | 1011.9 |
| 20260904085313 | 72 | 231 | 10.4 | 20.0 | 0.00 | 0.00 | 0.00 | 80 | 1011.8 |
| 20260904084813 | 72 | 207 | 9.6 | 17.4 | 0.00 | 0.00 | 0.00 | 81 | 1011.9 |
| 20260904084659 | 71 | 212 | 8.7 | 16.5 | 0.00 | 0.00 | 0.00 | 82 | 1011.9 |
| 20260904083818 | 71 | 216 | 9.6 | 15.6 | 0.00 | 0.00 | 0.00 | 83 | 1012.0 |
| 20260904083328 | 71 | 209 | 11.3 | 15.6 | 0.00 | 0.00 | 0.00 | 83 | 1012.1 |
| 20260904082815 | 71 | 234 | 7.8 | 16.5 | 0.00 | 0.00 | 0.00 | 85 | 1012.1 |
| 20260904082312 | 70 | 228 | 11.3 | 16.5 | 0.00 | 0.00 | 0.00 | 87 | 1012.1 |
| 20260904081812 | 69 | 161 | 9.6 | 14.8 | 0.00 | 0.00 | 0.00 | 86 | 1012.3 |
| 20260904081659 | 69 | 206 | 7.8 | 19.1 | 0.00 | 0.00 | 0.00 | 86 | 1012.4 |
| 20260904080812 | 70 | 248 | 11.3 | 19.1 | 0.00 | 0.00 | 0.00 | 84 | 1012.5 |
| 20260904080315 | 70 | 223 | 11.3 | 16.5 | 0.00 | 0.00 | 0.00 | 83 | 1012.4 |
| 20260904080204 | 70 | 252 | 8.7 | 16.5 | 0.00 | 0.00 | 0.00 | 83 | 1012.5 |
| 20260904075553 | 70 | 219 | 12.2 | 26.1 | 0.00 | 0.00 | 0.00 | 83 | 1012.5 |
| 20260904075438 | 70 | 235 | 10.4 | 26.1 | 0.00 | 0.00 | 0.00 | 83 | 1012.3 |
| 20260904074311 | 70 | 216 | 13.0 | 20.0 | 0.00 | 0.00 | 0.00 | 82 | 1012.6 |
| 20260904073812 | 70 | 228 | 11.3 | 20.9 | 0.00 | 0.00 | 0.00 | 83 | 1012.6 |
| 20260904073718 | 70 | 219 | 12.2 | 20.9 | 0.00 | 0.00 | 0.00 | 83 | 1012.7 |
| 20260904072811 | 70 | 237 | 9.6 | 16.5 | 0.00 | 0.00 | 0.00 | 84 | 1012.6 |
| 20260904072700 | 69 | 237 | 7.8 | 13.9 | 0.00 | 0.00 | 0.00 | 85 | 1012.5 |
| 20260904071813 | 69 | 247 | 6.1 | 17.4 | 0.00 | 0.00 | 0.00 | 86 | 1012.6 |
| 20260904071313 | 69 | 216 | 6.1 | 18.2 | 0.00 | 0.00 | 0.00 | 85 | 1012.6 |
| 20260904070823 | 69 | 262 | 9.6 | 19.1 | 0.00 | 0.00 | 0.00 | 84 | 1012.8 |
| 20260904070310 | 70 | 237 | 13.0 | 20.0 | 0.00 | 0.00 | 0.00 | 82 | 1012.7 |
| 20260904065809 | 70 | 228 | 11.3 | 20.0 | 0.00 | 0.00 | 0.00 | 81 | 1012.6 |
| 20260904065311 | 70 | 214 | 7.8 | 15.6 | 0.00 | 0.00 | 0.00 | 81 | 1012.7 |
| 20260904064809 | 70 | 210 | 9.6 | 15.6 | 0.00 | 0.00 | 0.00 | 80 | 1012.6 |
| 20260904064310 | 70 | 274 | 7.8 | 15.6 | 0.00 | 0.00 | 0.00 | 81 | 1012.6 |
| 20260904063810 | 70 | 220 | 10.4 | 17.4 | 0.00 | 0.00 | 0.00 | 81 | 1012.7 |
| 20260904063310 | 70 | 259 | 7.8 | 17.4 | 0.00 | 0.00 | 0.00 | 81 | 1012.7 |
| 20260904062810 | 70 | 237 | 7.8 | 20.0 | 0.00 | 0.00 | 0.00 | 81 | 1012.7 |
| 20260904062308 | 70 | 221 | 12.2 | 20.0 | 0.00 | 0.00 | 0.00 | 82 | 1012.7 |
| 20260904061810 | 69 | 230 | 10.4 | 15.6 | 0.00 | 0.00 | 0.00 | 82 | 1012.6 |
| 20260904061309 | 69 | 223 | 8.7 | 16.5 | 0.00 | 0.00 | 0.00 | 82 | 1012.6 |
| 20260904060819 | 69 | 223 | 7.8 | 16.5 | 0.00 | 0.00 | 0.00 | 82 | 1012.7 |
| 20260904060310 | 69 | 237 | 8.7 | 19.1 | 0.00 | 0.00 | 0.00 | 82 | 1012.8 |
| 20260904055809 | 69 | 220 | 13.9 | 19.1 | 0.00 | 0.00 | 0.00 | 82 | 1013.0 |
| 20260904055310 | 69 | 259 | 9.6 | 16.5 | 0.00 | 0.00 | 0.00 | 82 | 1012.9 |
| 20260904054807 | 69 | 180 | 8.7 | 16.5 | 0.00 | 0.00 | 0.00 | 82 | 1013.0 |
| 20260904054309 | 69 | 189 | 7.0 | 13.0 | 0.00 | 0.00 | 0.00 | 82 | 1013.1 |
| 20260904053808 | 69 | 204 | 6.1 | 15.6 | 0.00 | 0.00 | 0.00 | 82 | 1013.2 |
| 20260904053308 | 69 | 207 | 8.7 | 15.6 | 0.00 | 0.00 | 0.00 | 82 | 1013.2 |
| 20260904052807 | 69 | 244 | 7.8 | 15.6 | 0.00 | 0.00 | 0.00 | 83 | 1013.3 |
| 20260904052308 | 69 | 212 | 7.0 | 15.6 | 0.00 | 0.00 | 0.00 | 83 | 1013.4 |
| 20260904051809 | 69 | 235 | 7.8 | 13.9 | 0.00 | 0.00 | 0.00 | 83 | 1013.4 |
| 20260904051310 | 69 | 223 | 8.7 | 15.6 | 0.00 | 0.00 | 0.00 | 83 | 1013.4 |
| 20260904051148 | 69 | 203 | 7.0 | 15.6 | 0.00 | 0.00 | 0.00 | 83 | 1013.6 |
| 20260904050306 | 69 | 252 | 9.6 | 13.0 | 0.00 | 0.00 | 0.00 | 83 | 1013.6 |
| 20260904045807 | 69 | 248 | 8.7 | 13.9 | 0.00 | 0.00 | 0.00 | 83 | 1013.8 |
| 20260904045306 | 69 | 228 | 6.1 | 13.9 | 0.00 | 0.00 | 0.00 | 83 | 1013.8 |
| 20260904044802 | 69 | 226 | 7.8 | 13.9 | 0.00 | 0.00 | 0.00 | 84 | 1013.9 |
| 20260904044302 | 69 | 248 | 7.0 | 12.2 | 0.00 | 0.00 | 0.00 | 84 | 1013.8 |
| 20260904044149 | 68 | 259 | 7.8 | 12.2 | 0.00 | 0.00 | 0.00 | 84 | 1013.8 |
| 20260904043303 | 69 | 224 | 7.0 | 13.0 | 0.00 | 0.00 | 0.00 | 84 | 1013.9 |
| 20260904042803 | 68 | 243 | 7.8 | 15.6 | 0.00 | 0.00 | 0.00 | 84 | 1014.0 |
| 20260904042306 | 69 | 216 | 7.0 | 15.6 | 0.00 | 0.00 | 0.00 | 83 | 1013.9 |
| 20260904041802 | 69 | 245 | 7.8 | 14.8 | 0.00 | 0.00 | 0.00 | 83 | 1013.9 |
| 20260904041304 | 69 | 252 | 9.6 | 14.8 | 0.00 | 0.00 | 0.00 | 83 | 1013.9 |
| 20260904040803 | 69 | 216 | 7.0 | 12.2 | 0.00 | 0.00 | 0.00 | 83 | 1014.0 |
| 20260904040304 | 69 | 235 | 7.8 | 13.9 | 0.00 | 0.00 | 0.00 | 83 | 1014.0 |
| 20260904035803 | 69 | 237 | 7.8 | 13.9 | 0.00 | 0.00 | 0.00 | 83 | 1014.0 |
| 20260904035547 | 69 | 241 | 4.3 | 14.8 | 0.00 | 0.00 | 0.00 | 83 | 1014.1 |
| 20260904035430 | 69 | 224 | 6.1 | 13.9 | 0.00 | 0.00 | 0.00 | 83 | 1014.0 |
| 20260904034305 | 69 | 220 | 8.7 | 14.8 | 0.00 | 0.00 | 0.00 | 83 | 1014.1 |
| 20260904033803 | 69 | 230 | 7.8 | 15.6 | 0.00 | 0.00 | 0.00 | 84 | 1014.2 |
| 20260904033304 | 69 | 234 | 8.7 | 15.6 | 0.00 | 0.00 | 0.00 | 84 | 1014.2 |
| 20260904033154 | 69 | 262 | 9.6 | 15.6 | 0.00 | 0.00 | 0.00 | 84 | 1014.2 |
| 20260904032305 | 69 | 228 | 9.6 | 13.9 | 0.00 | 0.00 | 0.00 | 84 | 1014.2 |
| 20260904031804 | 69 | 207 | 8.7 | 13.9 | 0.00 | 0.00 | 0.00 | 84 | 1014.3 |
| 20260904031304 | 69 | 223 | 6.1 | 16.5 | 0.00 | 0.00 | 0.00 | 84 | 1014.4 |
| 20260904030802 | 69 | 241 | 6.1 | 16.5 | 0.00 | 0.00 | 0.00 | 84 | 1014.4 |
| 20260904030302 | 69 | 241 | 7.0 | 16.5 | 0.00 | 0.00 | 0.00 | 84 | 1014.2 |
| 20260904030150 | 69 | 231 | 10.4 | 16.5 | 0.00 | 0.00 | 0.00 | 84 | 1014.3 |
| 20260904025305 | 69 | 241 | 8.7 | 13.9 | 0.00 | 0.00 | 0.00 | 84 | 1014.4 |
| 20260904024802 | 69 | 210 | 9.6 | 15.6 | 0.00 | 0.00 | 0.00 | 84 | 1014.4 |
| 20260904024648 | 69 | 227 | 8.7 | 15.6 | 0.00 | 0.00 | 0.00 | 84 | 1014.5 |
| 20260904023803 | 69 | 240 | 6.1 | 15.6 | 0.00 | 0.00 | 0.00 | 84 | 1014.5 |
| 20260904023303 | 69 | 227 | 7.0 | 15.6 | 0.00 | 0.00 | 0.00 | 84 | 1014.6 |
| 20260904022804 | 69 | 228 | 9.6 | 14.8 | 0.00 | 0.00 | 0.00 | 84 | 1014.6 |
| 20260904022649 | 69 | 223 | 9.6 | 14.8 | 0.00 | 0.00 | 0.00 | 84 | 1014.6 |
| 20260904021803 | 69 | 224 | 7.0 | 12.2 | 0.00 | 0.00 | 0.00 | 83 | 1014.7 |
| 20260904021302 | 69 | 214 | 7.8 | 13.0 | 0.00 | 0.00 | 0.00 | 83 | 1014.7 |
| 20260904020802 | 69 | 241 | 7.8 | 13.0 | 0.00 | 0.00 | 0.00 | 83 | 1014.9 |
| 20260904020305 | 69 | 235 | 8.7 | 13.0 | 0.00 | 0.00 | 0.00 | 83 | 1014.8 |
| 20260904015805 | 70 | 206 | 6.1 | 13.0 | 0.00 | 0.00 | 0.00 | 83 | 1014.9 |
| 20260904015306 | 69 | 197 | 7.0 | 13.9 | 0.00 | 0.00 | 0.00 | 83 | 1015.0 |
| 20260904014803 | 70 | 217 | 8.7 | 13.9 | 0.00 | 0.00 | 0.00 | 83 | 1015.1 |
| 20260904014649 | 70 | 210 | 5.2 | 12.2 | 0.00 | 0.00 | 0.00 | 83 | 1015.3 |
| 20260904013803 | 70 | 245 | 7.8 | 14.8 | 0.00 | 0.00 | 0.00 | 83 | 1015.2 |
| 20260904013302 | 70 | 213 | 9.6 | 14.8 | 0.00 | 0.00 | 0.00 | 83 | 1015.4 |
| 20260904012802 | 70 | 196 | 9.6 | 13.9 | 0.00 | 0.00 | 0.00 | 83 | 1015.4 |
| 20260904012646 | 70 | 203 | 8.7 | 12.2 | 0.00 | 0.00 | 0.00 | 83 | 1015.4 |
| 20260904011802 | 69 | 234 | 7.8 | 12.2 | 0.00 | 0.00 | 0.00 | 83 | 1015.5 |
| 20260904011301 | 69 | 240 | 6.1 | 12.2 | 0.00 | 0.00 | 0.00 | 83 | 1015.5 |
| 20260904010801 | 69 | 214 | 7.0 | 11.3 | 0.00 | 0.00 | 0.00 | 84 | 1015.5 |
| 20260904010301 | 69 | 231 | 5.2 | 15.6 | 0.00 | 0.00 | 0.00 | 84 | 1015.6 |
| 20260904010149 | 69 | 212 | 6.1 | 15.6 | 0.00 | 0.00 | 0.00 | 83 | 1015.7 |
| 20260904005543 | 69 | 226 | 7.0 | 14.8 | 0.00 | 0.00 | 0.00 | 83 | 1015.7 |
| 20260904005428 | 69 | 238 | 6.1 | 14.8 | 0.00 | 0.00 | 0.00 | 83 | 1015.8 |
| 20260904004300 | 69 | 240 | 8.7 | 14.8 | 0.00 | 0.00 | 0.00 | 84 | 1015.8 |
| 20260904004144 | 69 | 188 | 5.2 | 12.2 | 0.00 | 0.00 | 0.00 | 84 | 1015.7 |
| 20260904003303 | 69 | 164 | 5.2 | 13.0 | 0.00 | 0.00 | 0.00 | 84 | 1015.9 |
| 20260904002800 | 69 | 234 | 7.8 | 13.0 | 0.00 | 0.00 | 0.00 | 84 | 1016.1 |
| 20260904002300 | 69 | 202 | 6.1 | 12.2 | 0.00 | 0.00 | 0.00 | 84 | 1016.0 |
| 20260904001759 | 69 | 221 | 6.1 | 10.4 | 0.00 | 0.00 | 0.00 | 84 | 1016.0 |
| 20260904001642 | 69 | 206 | 5.2 | 12.2 | 0.00 | 0.00 | 0.00 | 84 | 1016.0 |
| 20260904000804 | 69 | 216 | 7.8 | 12.2 | 0.00 | 0.00 | 0.00 | 84 | 1016.0 |
| 20260904000303 | 69 | 206 | 7.8 | 11.3 | 0.00 | 0.00 | 0.00 | 84 | 1016.0 |
| 20260903235802 | 69 | 214 | 7.0 | 12.2 | 0.00 | 0.00 | 0.00 | 84 | 1016.1 |
| 20260903235639 | 69 | 161 | 7.8 | 13.0 | 0.00 | 0.00 | 0.00 | 84 | 1016.1 |
| 20260903234759 | 69 | 193 | 7.0 | 13.0 | 0.00 | 0.00 | 0.00 | 84 | 1016.3 |
| 20260903234259 | 69 | 224 | 7.0 | 13.0 | 0.00 | 0.00 | 0.00 | 84 | 1016.2 |
| 20260903233800 | 70 | 219 | 5.2 | 12.2 | 0.00 | 0.00 | 0.00 | 84 | 1016.3 |
| 20260903233258 | 70 | 210 | 5.2 | 9.6 | 0.00 | 0.00 | 0.00 | 84 | 1016.2 |
| 20260903233136 | 70 | 251 | 6.1 | 13.9 | 0.00 | 0.00 | 0.00 | 83 | 1016.4 |
| 20260903232259 | 70 | 214 | 7.8 | 13.9 | 0.00 | 0.00 | 0.00 | 84 | 1016.4 |
| 20260903231758 | 70 | 244 | 7.0 | 11.3 | 0.00 | 0.00 | 0.00 | 84 | 1016.5 |
| 20260903231257 | 70 | 250 | 7.0 | 12.2 | 0.00 | 0.00 | 0.00 | 83 | 1016.6 |
| 20260903230800 | 70 | 240 | 7.0 | 12.2 | 0.00 | 0.00 | 0.00 | 83 | 1016.6 |
| 20260903230258 | 70 | 237 | 5.2 | 11.3 | 0.00 | 0.00 | 0.00 | 83 | 1016.6 |
| 20260903225758 | 70 | 245 | 6.1 | 12.2 | 0.00 | 0.00 | 0.00 | 83 | 1016.5 |
| 20260903225256 | 70 | 228 | 5.2 | 12.2 | 0.00 | 0.00 | 0.00 | 83 | 1016.6 |
| 20260903225202 | 70 | 237 | 5.2 | 12.2 | 0.00 | 0.00 | 0.00 | 83 | 1016.8 |
| 20260903224256 | 70 | 233 | 7.8 | 12.2 | 0.00 | 0.00 | 0.00 | 83 | 1016.9 |
| 20260903223758 | 70 | 231 | 6.1 | 11.3 | 0.00 | 0.00 | 0.00 | 83 | 1016.9 |
| 20260903223258 | 69 | 234 | 5.2 | 12.2 | 0.00 | 0.00 | 0.00 | 83 | 1016.8 |
| 20260903222756 | 69 | 243 | 7.8 | 12.2 | 0.00 | 0.00 | 0.00 | 83 | 1016.9 |
| 20260903222257 | 69 | 213 | 4.3 | 10.4 | 0.00 | 0.00 | 0.00 | 83 | 1016.9 |
| 20260903222139 | 69 | 237 | 6.1 | 12.2 | 0.00 | 0.00 | 0.00 | 83 | 1016.8 |
| 20260903221256 | 69 | 209 | 7.0 | 13.0 | 0.00 | 0.00 | 0.00 | 83 | 1016.9 |
| 20260903221141 | 69 | 241 | 6.1 | 13.0 | 0.00 | 0.00 | 0.00 | 83 | 1016.9 |
| 20260903220255 | 70 | 255 | 7.8 | 13.0 | 0.00 | 0.00 | 0.00 | 83 | 1017.0 |
| 20260903220149 | 70 | 220 | 7.8 | 12.2 | 0.00 | 0.00 | 0.00 | 83 | 1017.1 |
| 20260903215258 | 70 | 230 | 6.1 | 13.0 | 0.00 | 0.00 | 0.00 | 83 | 1017.0 |
| 20260903214757 | 70 | 226 | 7.0 | 13.0 | 0.00 | 0.00 | 0.00 | 83 | 1017.1 |
| 20260903214638 | 70 | 252 | 7.8 | 11.3 | 0.00 | 0.00 | 0.00 | 83 | 1017.1 |
| 20260903213755 | 70 | 223 | 6.1 | 11.3 | 0.00 | 0.00 | 0.00 | 83 | 1017.1 |
| 20260903213257 | 70 | 185 | 4.3 | 10.4 | 0.00 | 0.00 | 0.00 | 83 | 1017.1 |
| 20260903212756 | 70 | 224 | 5.2 | 11.3 | 0.00 | 0.00 | 0.00 | 83 | 1017.2 |
| 20260903212256 | 70 | 247 | 6.1 | 12.2 | 0.00 | 0.00 | 0.00 | 83 | 1017.3 |
| 20260903211755 | 70 | 212 | 6.1 | 12.2 | 0.00 | 0.00 | 0.00 | 83 | 1017.6 |
| 20260903211256 | 69 | 219 | 7.0 | 12.2 | 0.00 | 0.00 | 0.00 | 83 | 1017.6 |
| 20260903210754 | 69 | 259 | 8.7 | 13.9 | 0.00 | 0.00 | 0.00 | 84 | 1017.7 |
| 20260903210532 | 69 | 235 | 5.2 | 13.0 | 0.00 | 0.00 | 0.00 | 84 | 1017.6 |
| 20260903210421 | 69 | 219 | 6.1 | 13.9 | 0.00 | 0.00 | 0.00 | 84 | 1017.6 |
| 20260903205254 | 69 | 202 | 7.0 | 13.0 | 0.00 | 0.00 | 0.00 | 84 | 1017.6 |
| 20260903204756 | 69 | 235 | 5.2 | 11.3 | 0.00 | 0.00 | 0.00 | 85 | 1017.6 |
| 20260903204253 | 69 | 247 | 6.1 | 11.3 | 0.00 | 0.00 | 0.00 | 85 | 1017.7 |
| 20260903203755 | 69 | 224 | 5.2 | 8.7 | 0.00 | 0.00 | 0.00 | 85 | 1017.7 |
| 20260903203255 | 69 | 207 | 4.3 | 8.7 | 0.00 | 0.00 | 0.00 | 85 | 1017.5 |
| 20260903202756 | 69 | 206 | 4.3 | 8.7 | 0.00 | 0.00 | 0.00 | 85 | 1017.5 |
| 20260903202254 | 69 | 220 | 4.3 | 8.7 | 0.00 | 0.00 | 0.00 | 85 | 1017.5 |
| 20260903201755 | 69 | 213 | 5.2 | 9.6 | 0.00 | 0.00 | 0.00 | 85 | 1017.6 |
| 20260903201256 | 69 | 219 | 4.3 | 9.6 | 0.00 | 0.00 | 0.00 | 85 | 1017.5 |
| 20260903200755 | 69 | 237 | 5.2 | 8.7 | 0.00 | 0.00 | 0.00 | 84 | 1017.7 |
| 20260903200253 | 69 | 230 | 4.3 | 8.7 | 0.00 | 0.00 | 0.00 | 84 | 1017.6 |
| 20260903195753 | 69 | 186 | 5.2 | 8.7 | 0.00 | 0.00 | 0.00 | 83 | 1017.7 |
| 20260903195255 | 70 | 190 | 4.3 | 9.6 | 0.00 | 0.00 | 0.00 | 83 | 1017.6 |
| 20260903194752 | 70 | 189 | 4.3 | 9.6 | 0.00 | 0.00 | 0.00 | 82 | 1017.6 |
| 20260903194646 | 70 | 213 | 6.1 | 10.4 | 0.00 | 0.00 | 0.00 | 81 | 1017.7 |
| 20260903194036 | 71 | 274 | 7.0 | 11.3 | 0.00 | 0.00 | 0.00 | 80 | 1017.6 |
| 20260903193923 | 70 | 250 | 6.1 | 11.3 | 0.00 | 0.00 | 0.00 | 81 | 1017.7 |
| 20260903192753 | 71 | 266 | 5.2 | 11.3 | 0.00 | 0.00 | 0.00 | 80 | 1017.7 |
| 20260903192253 | 71 | 221 | 7.0 | 11.3 | 0.00 | 0.00 | 0.00 | 79 | 1017.5 |
| 20260903192136 | 71 | 237 | 5.2 | 11.3 | 0.00 | 0.00 | 0.00 | 79 | 1017.7 |
| 20260903191252 | 71 | 212 | 5.2 | 13.0 | 0.00 | 0.00 | 0.00 | 78 | 1017.8 |
| 20260903190751 | 71 | 231 | 7.0 | 13.0 | 0.00 | 0.00 | 0.00 | 77 | 1017.7 |
| 20260903190252 | 71 | 247 | 6.1 | 8.7 | 0.00 | 0.00 | 0.00 | 77 | 1017.8 |
| 20260903185753 | 71 | 199 | 5.2 | 9.6 | 0.00 | 0.00 | 0.00 | 77 | 1017.7 |
| 20260903185253 | 71 | 248 | 6.1 | 9.6 | 0.00 | 0.00 | 0.00 | 77 | 1017.7 |
| 20260903185131 | 71 | 224 | 5.2 | 8.7 | 0.00 | 0.00 | 0.00 | 77 | 1017.6 |
| 20260903184251 | 71 | 217 | 6.1 | 9.6 | 0.00 | 0.00 | 0.00 | 77 | 1017.7 |
| 20260903183750 | 71 | 247 | 6.1 | 9.6 | 0.00 | 0.00 | 0.00 | 77 | 1017.6 |
| 20260903183633 | 71 | 214 | 5.2 | 8.7 | 0.00 | 0.00 | 0.00 | 77 | 1017.5 |
| 20260903182750 | 71 | 240 | 5.2 | 8.7 | 0.00 | 0.00 | 0.00 | 77 | 1017.5 |
| 20260903182252 | 71 | 213 | 4.3 | 5.2 | 0.00 | 0.00 | 0.00 | 76 | 1017.5 |
| 20260903181752 | 72 | 220 | 4.3 | 5.2 | 0.00 | 0.00 | 0.00 | 76 | 1017.7 |
| 20260903181252 | 72 | 223 | 4.3 | 6.1 | 0.00 | 0.00 | 0.00 | 76 | 1017.7 |
| 20260903180752 | 72 | 223 | 3.5 | 6.1 | 0.00 | 0.00 | 0.00 | 75 | 1017.7 |
| 20260903180632 | 72 | 227 | 3.5 | 4.3 | 0.00 | 0.00 | 0.00 | 75 | 1017.7 |
| 20260903175752 | 72 | 268 | 2.6 | 5.2 | 0.00 | 0.00 | 0.00 | 74 | 1017.7 |
| 20260903175251 | 72 | 271 | 2.6 | 6.1 | 0.00 | 0.00 | 0.00 | 74 | 1017.7 |
| 20260903174749 | 72 | 243 | 2.6 | 6.1 | 0.00 | 0.00 | 0.00 | 74 | 1017.6 |
| 20260903174251 | 72 | 240 | 2.6 | 4.3 | 0.00 | 0.00 | 0.00 | 74 | 1017.7 |
| 20260903173750 | 73 | 275 | 2.6 | 9.6 | 0.00 | 0.00 | 0.00 | 73 | 1017.7 |
| 20260903173637 | 73 | 233 | 6.1 | 9.6 | 0.00 | 0.00 | 0.00 | 73 | 1017.8 |
| 20260903173137 | 73 | 230 | 4.3 | 10.4 | 0.00 | 0.00 | 0.00 | 72 | 1017.7 |
| 20260903172249 | 73 | 227 | 5.2 | 10.4 | 0.00 | 0.00 | 0.00 | 72 | 1017.6 |
| 20260903171749 | 73 | 230 | 5.2 | 8.7 | 0.00 | 0.00 | 0.00 | 72 | 1017.8 |
| 20260903171248 | 73 | 293 | 3.5 | 11.3 | 0.00 | 0.00 | 0.00 | 72 | 1017.7 |
| 20260903170749 | 73 | 268 | 6.1 | 11.3 | 0.00 | 0.00 | 0.00 | 71 | 1017.6 |
| 20260903170635 | 73 | 268 | 3.5 | 10.4 | 0.00 | 0.00 | 0.00 | 71 | 1017.7 |
| 20260903165749 | 74 | 257 | 5.2 | 10.4 | 0.00 | 0.00 | 0.00 | 71 | 1017.7 |
| 20260903165248 | 74 | 268 | 3.5 | 9.6 | 0.00 | 0.00 | 0.00 | 70 | 1017.7 |
| 20260903164747 | 74 | 264 | 6.1 | 13.9 | 0.00 | 0.00 | 0.00 | 70 | 1017.8 |
| 20260903164250 | 74 | 271 | 5.2 | 13.9 | 0.00 | 0.00 | 0.00 | 70 | 1017.9 |
| 20260903163749 | 74 | 266 | 7.8 | 14.8 | 0.00 | 0.00 | 0.00 | 70 | 1018.0 |
| 20260903163249 | 74 | 281 | 7.0 | 14.8 | 0.00 | 0.00 | 0.00 | 70 | 1018.0 |
| 20260903162749 | 74 | 298 | 5.2 | 13.0 | 0.00 | 0.00 | 0.00 | 69 | 1017.6 |
| 20260903162250 | 74 | 269 | 6.1 | 13.0 | 0.00 | 0.00 | 0.00 | 68 | 1017.6 |
| 20260903161745 | 75 | 248 | 9.6 | 13.9 | 0.00 | 0.00 | 0.00 | 68 | 1017.7 |
| 20260903161244 | 75 | 217 | 9.6 | 13.9 | 0.00 | 0.00 | 0.00 | 67 | 1017.6 |
| 20260903160736 | 75 | 247 | 6.1 | 13.9 | 0.00 | 0.00 | 0.00 | 68 | 1017.7 |
| 20260903160236 | 75 | 252 | 8.7 | 13.9 | 0.00 | 0.00 | 0.00 | 67 | 1017.7 |
| 20260903155734 | 75 | 279 | 7.8 | 14.8 | 0.00 | 0.00 | 0.00 | 66 | 1017.8 |
| 20260903155231 | 75 | 212 | 7.0 | 14.8 | 0.00 | 0.00 | 0.00 | 67 | 1017.8 |
| 20260903154732 | 76 | 268 | 6.1 | 13.9 | 0.00 | 0.00 | 0.00 | 65 | 1017.9 |
| 20260903154231 | 76 | 266 | 7.0 | 17.4 | 0.00 | 0.00 | 0.00 | 67 | 1017.8 |
| 20260903153731 | 75 | 282 | 8.7 | 17.4 | 0.00 | 0.00 | 0.00 | 66 | 1017.8 |
| 20260903153231 | 75 | 271 | 9.6 | 14.8 | 0.00 | 0.00 | 0.00 | 67 | 1017.8 |
| 20260903152730 | 74 | 259 | 7.0 | 13.0 | 0.00 | 0.00 | 0.00 | 67 | 1017.7 |
| 20260903152230 | 75 | 271 | 8.7 | 17.4 | 0.00 | 0.00 | 0.00 | 67 | 1017.8 |
| 20260903152114 | 75 | 255 | 7.0 | 17.4 | 0.00 | 0.00 | 0.00 | 67 | 1017.9 |
| 20260903151232 | 75 | 252 | 7.0 | 16.5 | 0.00 | 0.00 | 0.00 | 68 | 1017.9 |
| 20260903150732 | 74 | 266 | 12.2 | 14.8 | 0.00 | 0.00 | 0.00 | 67 | 1018.0 |
| 20260903150231 | 75 | 279 | 9.6 | 13.9 | 0.00 | 0.00 | 0.00 | 67 | 1017.8 |
| 20260903145732 | 75 | 219 | 7.0 | 13.0 | 0.00 | 0.00 | 0.00 | 68 | 1017.9 |
| 20260903145613 | 74 | 251 | 7.0 | 15.6 | 0.00 | 0.00 | 0.00 | 68 | 1018.0 |
| 20260903144731 | 75 | 245 | 9.6 | 15.6 | 0.00 | 0.00 | 0.00 | 68 | 1018.0 |
| 20260903144231 | 75 | 210 | 5.2 | 13.0 | 0.00 | 0.00 | 0.00 | 69 | 1017.9 |
| 20260903144114 | 74 | 276 | 6.1 | 13.0 | 0.00 | 0.00 | 0.00 | 68 | 1017.8 |
| 20260903143230 | 75 | 266 | 6.1 | 13.0 | 0.00 | 0.00 | 0.00 | 67 | 1017.9 |
| 20260903142729 | 75 | 233 | 7.0 | 17.4 | 0.00 | 0.00 | 0.00 | 66 | 1017.9 |
| 20260903142229 | 76 | 286 | 12.2 | 17.4 | 0.00 | 0.00 | 0.00 | 65 | 1017.8 |
| 20260903141732 | 78 | 220 | 9.6 | 18.2 | 0.00 | 0.00 | 0.00 | 65 | 1017.7 |
| 20260903141233 | 77 | 254 | 13.0 | 18.2 | 0.00 | 0.00 | 0.00 | 67 | 1017.7 |
| 20260903140730 | 76 | 255 | 9.6 | 15.6 | 0.00 | 0.00 | 0.00 | 68 | 1017.9 |
| 20260903140618 | 75 | 274 | 7.8 | 15.6 | 0.00 | 0.00 | 0.00 | 69 | 1017.8 |
| 20260903135732 | 74 | 247 | 7.8 | 13.9 | 0.00 | 0.00 | 0.00 | 69 | 1017.9 |
| 20260903135231 | 74 | 224 | 7.0 | 14.8 | 0.00 | 0.00 | 0.00 | 69 | 1017.9 |
| 20260903134730 | 74 | 247 | 7.0 | 14.8 | 0.00 | 0.00 | 0.00 | 69 | 1017.9 |
| 20260903134627 | 74 | 321 | 8.7 | 14.8 | 0.00 | 0.00 | 0.00 | 69 | 1017.9 |
| 20260903133733 | 74 | 255 | 4.3 | 15.6 | 0.00 | 0.00 | 0.00 | 70 | 1017.9 |
| 20260903133232 | 74 | 269 | 8.7 | 15.6 | 0.00 | 0.00 | 0.00 | 69 | 1018.0 |
| 20260903132731 | 74 | 244 | 8.7 | 16.5 | 0.00 | 0.00 | 0.00 | 69 | 1017.9 |
| 20260903132229 | 75 | 257 | 7.0 | 16.5 | 0.00 | 0.00 | 0.00 | 69 | 1017.7 |
| 20260903131728 | 75 | 282 | 9.6 | 18.2 | 0.00 | 0.00 | 0.00 | 69 | 1017.7 |
| 20260903131228 | 75 | 272 | 11.3 | 18.2 | 0.00 | 0.00 | 0.00 | 68 | 1017.8 |
| 20260903130728 | 75 | 203 | 7.8 | 15.6 | 0.00 | 0.00 | 0.00 | 69 | 1017.7 |
| 20260903130226 | 74 | 278 | 6.1 | 12.2 | 0.00 | 0.00 | 0.00 | 72 | 1017.7 |
| 20260903125725 | 73 | 272 | 4.3 | 17.4 | 0.00 | 0.00 | 0.00 | 72 | 1017.8 |
| 20260903125225 | 73 | 243 | 11.3 | 17.4 | 0.00 | 0.00 | 0.00 | 71 | 1017.9 |
| 20260903124728 | 74 | 255 | 7.8 | 15.6 | 0.00 | 0.00 | 0.00 | 73 | 1017.8 |
| 20260903124225 | 73 | 271 | 5.2 | 14.8 | 0.00 | 0.00 | 0.00 | 74 | 1017.7 |
| 20260903123722 | 73 | 252 | 5.2 | 17.4 | 0.00 | 0.00 | 0.00 | 73 | 1017.7 |
| 20260903123221 | 73 | 230 | 8.7 | 17.4 | 0.00 | 0.00 | 0.00 | 73 | 1017.9 |
| 20260903122723 | 73 | 252 | 7.0 | 17.4 | 0.00 | 0.00 | 0.00 | 74 | 1017.8 |
| 20260903122220 | 73 | 285 | 11.3 | 17.4 | 0.00 | 0.00 | 0.00 | 72 | 1017.8 |
| 20260903121720 | 73 | 258 | 8.7 | 16.5 | 0.00 | 0.00 | 0.00 | 71 | 1017.7 |